Location: Bednik
(45.3500°N, 16.3833°E)
Time: 08:25:27
(UTC+00:00)

Lacrosse 5 - Pass Details

Date: 08 August 2020
Orbit: 716 x 722 km, 57.0° (Epoch: 25 September)

Event Time Altitude Azimuth Distance (km) Brightness Sun altitude
Rises 21:38:23 0° 310° (NW) 3,134 6.1 -26.1°
Reaches altitude 10° 21:40:46 10° 309° (NW) 2,211 5.1 -26.3°
Enters shadow 21:45:32 77° 285° (WNW) 743 1.8 -26.6°
